Regional Weather Roundup
Issued by NWS

Home | Current Version | Previous Version | Graphics & Text | Print | Product List | Glossary On
Versions: 1 2 3 4 5 6 7 8 9 10 11 12 13 14 15 16 17 18 19 20 21 22 23 24 25 26 27 28 29 30 31 32 33 34 35 36 37 38 39 40 41 42 43 44 45 46 47 48 49 50
000
ASUS43 KLMK 262302
RWRKY
KENTUCKY REGIONAL WEATHER ROUNDUP
NATIONAL WEATHER SERVICE LOUISVILLE KY
700 PM EDT TUE JUL 26 2016

NOTE "FAIR" INDICATES FEW OR NO CLOUDS BELOW 12,000 FEET
WITH NO SIGNIFICANT WEATHER AND/OR OBSTRUCTIONS TO VISIBILITY.

KYZ001>023-026-027-061>063-070>075-270000-
WESTERN AND SOUTH CENTRAL KENTUCKY

CITY           SKY/WX    TMP DP  RH WIND       PRES   REMARKS
PADUCAH        PTSUNNY   82  73  74 N7        29.96F
HENDERSON      CLOUDY    84  75  74 W7        29.97R HX  92
OWENSBORO      SUNNY     83  80  90 CALM      29.97S HX  95
HOPKINSVILLE   SUNNY     91  73  55 NW7       29.94F HX 100
BOWLING GREEN  SUNNY     92  71  50 W7        29.96S HX  98
GLASGOW        NOT AVBL
$$

KYZ024-025-028>034-038-045-046-053-270000-
NORTH CENTRAL KENTUCKY

CITY           SKY/WX    TMP DP  RH WIND       PRES   REMARKS
LOUISVILLE/SDF CLOUDY    84  74  71 N9        29.96R HX  91
LOUISVILLE/LOU MOSUNNY   83  75  77 NW9       29.97S HX  90
FORT KNOX      MOSUNNY   89  74  63 W8        29.96S HX  98
$$

KYZ035>037-039>044-047>052-055>060-089>105-270000-
NORTHEAST KENTUCKY

CITY           SKY/WX    TMP DP  RH WIND       PRES   REMARKS
LEXINGTON      SUNNY     86  75  69 NE9       29.99S HX  95
COVINGTON      PTSUNNY   83  73  72 E6        30.00S
FRANKFORT      RAIN      82  76  81 E9        29.97S
$$

KYZ054-064>069-076>088-106>120-270000-
SOUTHEAST KENTUCKY

CITY           SKY/WX    TMP DP  RH WIND       PRES   REMARKS
JACKSON        SUNNY     89  73  59 CALM      30.00F HX  97
LONDON         SUNNY     90  69  50 W7        30.00R HX  94
SOMERSET       PTSUNNY   88  70  55 CALM      29.99S HX  92
MIDDLESBORO    SUNNY     90  73  56 CALM      30.00S HX  97
MONTICELLO     CLEAR    N/A N/A N/A NW5       30.00S
$$





USA.gov is the U.S. government's official web portal to all federal, state and local government web resources and services.